sat.trackr.live / text

‹ back to catalog

STARLINK-31914

NORAD 59902 · 2024-100T

PAYLOAD ACTIVE UNKNOWN

§ Identity

Operator
Country
US
Launch date
2024-05-28
Launch site
AFETR
Launch vehicle
Mass (kg)
RCS (m²)

Purposes: comms

External: N2YO · Heavens-Above · Gunter

§ Orbital elements

Epoch: 2026-09-21T21:51:55.667808Z

Period
94.27 min
Inclination
43.0019°
Eccentricity
0.0000950
Mean motion
15.27576921 rev/d
Perigee alt
482.4 km
Apogee alt
483.7 km
Semi-major
6,861.2 km
B*
1.4760e-5
RAAN
97.4771°
Arg perigee
272.1337°
Mean anomaly
87.9406°
Rev number
13,105

§ Raw data

STARLINK-319141 59902U 24100T   26264.91106097  .00000144  00000+0  14760-4 0  99952 59902  43.0019  97.4771 0000950 272.1337  87.9406 15.27576921131057

JSON: /api/v1/satellites/59902 · /tle

For live sub-satellite position, see the globe view (requires WebGL).

§ Visibility from observer

Set your observer location to see the next 7 days of passes ≥ 10°. The values pass through the URL so the page stays shareable.

No JS? Fill the form by hand. The geolocation button needs JavaScript.